Regional Weather Roundup
Issued by NWS

Home | Current Version | Previous Version | Text Only | Print | Product List | Glossary Off
Versions: 1 2 3 4 5 6 7 8 9 10 11 12 13 14 15 16 17 18 19 20 21 22 23 24 25 26 27 28 29 30 31 32 33 34 35 36 37 38 39 40 41 42 43 44 45 46 47 48 49 50

000
ASUS43 KMPX 260710
RWRMN
WEATHER ROUNDUP FOR MINNESOTA
NATIONAL WEATHER SERVICE TWIN CITIES/CHANHASSEN MN
200 AM CDT SUN MAR 26 2017


NOTE: "FAIR" INDICATES FEW OR NO CLOUDS BELOW 12,000 FEET WITH NO
SIGNIFICANT WEATHER AND/OR OBSTRUCTIONS TO VISIBILITY. N/A MEANS
CURRENT SKY AND/OR WEATHER CONDITIONS ARE NOT AVAILABLE.

MNZ060>063-068>070-260800-
   Twin Cities Metro

CITY           SKY/WX    TMP DP  RH WIND       PRES   REMARKS
TWIN CITIES    DRIZZLE   38  35  89 E8        29.99F
ST PAUL        CLOUDY    38  36  92 E7        30.01F
CRYSTAL        LGT RAIN  38  34  85 NE6       29.99F
BLAINE         DRIZZLE   39  37  93 E7        30.00S
LAKEVILLE      CLOUDY    36  36 100 E8        29.98F
EDEN PRAIRIE   CLOUDY    39  36  89 E7        29.98F
SOUTH ST PAUL  CLOUDY    37  36  93 E6        29.99F
LAKE ELMO      CLOUDY    36  36 100 E6        30.01F
$$
MNZ001>005-007-008-013>017-022>024-027-028-260800-
   Northwest Minnesota

CITY           SKY/WX    TMP DP  RH WIND       PRES   REMARKS
BEMIDJI        PTCLDY    30  28  93 SE6       30.02S WCI  24
HALLOCK        CLOUDY    36  34  93 S12       29.98R
ROSEAU         PTCLDY    34  28  80 S9        30.00F WCI  26
WARROAD        CLOUDY    34  28  80 S8        30.02S WCI  27
THIEF RVR FALL MOCLDY    30  30 100 CALM      30.02S FOG
CROOKSTON      CLOUDY    32  30  93 S6        30.02S WCI  26
FOSSTON        PTCLDY    30  28  93 SE7       30.01S WCI  23
DETROIT LAKES  CLOUDY    34  32  93 SE7       30.01F WCI  28
MOORHEAD       CLOUDY    34  30  86 CALM      30.01S
PARK RAPIDS    CLOUDY    33  27  78 SE6       30.00F WCI  28
MAHNOMEN       FAIR      32  28  86 SE7       29.99F WCI  26
$$
MNZ006-009>011-018-025>026-260800-
   North Central Minnesota

CITY           SKY/WX    TMP DP  RH WIND       PRES   REMARKS
BAUDETTE       PTCLDY    30  25  81 S8        30.02F WCI  22
FLAG ISLAND    CLOUDY    30  28  93 S16       30.01S WCI  19
INTL FALLS     CLOUDY    31  26  82 SE5       30.05F WCI  26
WASKISH        CLOUDY    30  28  93 SE6       30.03F WCI  24
BIG FORK       CLOUDY    32  28  86 SE3       30.05S
LONGVILLE      CLOUDY    34  28  80 CALM      30.03S
GRAND RAPIDS   CLOUDY    31  29  92 VRB3      30.06
CRANE LAKE     CLOUDY    28  27  93 CALM      30.09F
ORR            CLOUDY    30  27  86 CALM      30.04F
COOK           CLOUDY    30  28  93 CALM      30.07F
WALKER         CLOUDY    31  28  90 CALM      30.02F
$$
MNZ012-019>021-037-260800-
   Northeast Minnesota

CITY           SKY/WX    TMP DP  RH WIND       PRES   REMARKS
DULUTH         FRZ DRZL  32  31  96 E10       30.04F FOG     WCI  24
ELY            CLOUDY    30  28  93 CALM      30.07S
HIBBING        CLOUDY    30  28  92 E3        30.05F
EVELETH        CLOUDY    32  29  89 CALM      30.06S
DULUTH HARBOR  CLOUDY    34  32  93 NE13      30.08F WCI  25
TWO HARBORS    CLOUDY    34  28  80 E10       30.05F WCI  26
SILVER BAY     CLOUDY    32  30  93 NE7G16    30.06F WCI  26
GRAND MARAIS     N/A     34  28  79 NE10      30.12F WCI  26
G MARAIS ARPRT CLOUDY    30  21  69 E7        30.07F WCI  23
$$
MNZ029>031-032-039>041-046>048-054>057-064-260800-
   West Central Minnesota

CITY           SKY/WX    TMP DP  RH WIND       PRES   REMARKS
FERGUS FALLS   CLOUDY    36  30  80 CALM      30.04F
WHEATON        CLOUDY    36  34  93 CALM      30.01F
MORRIS         CLOUDY    37  36  93 SE3       29.98F
ALEXANDRIA     CLOUDY    38  34  85 E5        30.00S
ELBOW LAKE     CLOUDY    37  35  94 CALM      30.00F
WADENA         CLOUDY    34  28  80 E5        30.00F WCI  30
GLENWOOD       CLOUDY    37  34  87 CALM      29.99F
APPLETON       CLOUDY    37  36  93 CALM      29.99S
BENSON         CLOUDY    39  34  81 CALM      30.01S
MADISON        CLOUDY    39  39 100 CALM      29.98F FOG
WILLMAR        CLOUDY    39  36  87 E7        29.99S
$$
MNZ033>034-036-042>043-049>051-058-059-260800-
   Central Minnesota

CITY           SKY/WX    TMP DP  RH WIND       PRES   REMARKS
ST CLOUD       CLOUDY    36  31  82 NE7       30.00F
SAUK CENTRE    CLOUDY    37  33  87 NE3       29.99S
PAYNESVILLE      N/A     38  34  88 E6        29.99F
AITKIN         CLOUDY    36  28  75 E5        30.02S
PINE RIVER     CLOUDY    32  28  86 E5        30.06S WCI  27
BRAINERD       CLOUDY    34  29  82 VRB3      30.02F
STAPLES        CLOUDY    34  28  80 CALM      30.01F
LONG PRAIRIE   CLOUDY    34  30  86 N3        30.00S
LITTLE FALLS   CLOUDY    34  30  86 E6        30.00F WCI  29
LITCHFIELD     CLOUDY    39  36  87 E9        29.98F
BUFFALO        DRIZZLE   37  35  90 NE6       30.00F
MAPLE LAKE     CLOUDY    38  36  91 E5        30.00F FOG
HUTCHINSON     DRIZZLE   38  37  94 NE5       29.99F
$$
MNZ037-044-045-052-053-260800-
   East Central Minnesota

CITY           SKY/WX    TMP DP  RH WIND       PRES   REMARKS
PRINCETON      CLOUDY    37  30  75 NE6       30.01F
MORA           CLOUDY    34  28  80 E5        30.03F WCI  30
CAMBRIDGE      DRIZZLE   37  28  70 NE3       29.99F
RUSH CITY      DRIZZLE   34  31  90 NE7       30.02F WCI  28
MOOSE LAKE     CLOUDY    32  30  93 E3        30.02F
CLOQUET        CLOUDY    32  30  93 E7        30.04F FOG     WCI  26
MCGREGOR       CLOUDY    32  32 100 E6        30.04S WCI  26
$$
MNZ071>073-080-081-089-090-097-098-260800-
   Southwest Minnesota

CITY           SKY/WX    TMP DP  RH WIND       PRES   REMARKS
MONTEVIDEO     CLOUDY    37  37 100 SE3       30.00S
GRANITE FALLS  CLOUDY    38  37  93 NE5       29.99F
CANBY          CLOUDY    37  37  98 CALM      29.99S FOG
MARSHALL       CLOUDY    37  35  92 E5        29.97F
REDWOOD FALLS  CLOUDY    39  34  82 E8        29.96F
OLIVIA         CLOUDY    36  34  93 E5        29.97F
PIPESTONE      FOG       36  34  93 SE8       29.94S VSB 3/4
WINDOM         DRIZZLE   36  36 100 NE7       29.94F
WORTHINGTON    CLOUDY    35  35 100 NE7       29.94F FOG     WCI  29
JACKSON        DRIZZLE   36  36 100 NE8       29.93F
TRACY          CLOUDY    37  37  97 E7        29.96F FOG
SLAYTON        CLOUDY    35  35 100 E8        29.94F FOG     WCI  28
$$
MNZ065>067-074>077-082>085-091>093-260800-
   South Central Minnesota

CITY           SKY/WX    TMP DP  RH WIND       PRES   REMARKS
MANKATO        LGT RAIN  37  35  92 E9        29.96F FOG
NEW ULM        DRIZZLE   37  36  93 NE7       29.96F
ST JAMES       LGT RAIN  37  37 100 CALM      29.96F
FAIRMONT       CLOUDY    37  36  96 NE8       29.94F FOG
GLENCOE        CLOUDY    38  38 100 NE5       29.97F
FARIBAULT      RAIN      36  36 100 NE6       29.97F
OWATONNA       CLOUDY    36  34  93 NE8       29.95F FOG
WASECA         CLOUDY    36  36 100 NE9       29.96F FOG
ALBERT LEA     DRIZZLE   36  36 100 NE8       29.93F
$$
MNZ078>079-086>088-094>096-260800-
   Southeast Minnesota

CITY           SKY/WX    TMP DP  RH WIND       PRES   REMARKS
ROCHESTER      FOG       34  34 100 E10       29.94F VSB 3/4 WCI  26
RED WING       RAIN      36  34  93 E5        29.98F
STANTON        DRIZZLE   37  35  92 E6        29.97F
DODGE CENTER   DRIZZLE   34  34 100 NE8       29.94S WCI  27
WINONA         CLOUDY    36  36 100 E6        29.98F
AUSTIN         CLOUDY    36  34  93 NE6       29.92F FOG
PRESTON        FOG       34  33  96 NE6       29.94S VSB 1/2 WCI  29
$$
ABBREVIATIONS USED IN REMARKS
   TC - TEMPERATURES IN CELSIUS
  WCI - WIND CHILL INDEX
   HX - HEAT INDEX
  VSB - VISIBILITY
$$




USA.gov is the U.S. government's official web portal to all federal, state and local government web resources and services.